map of GCM home
GCM - Airport
Location
City:  Grand Cayman, Cayman Islands
Name:Owen Roberts International Airport
ICAO:MWCR
IATA:GCM

Details
Type:Airport (Aerodrome, Airfield)
Use:Public/Civil, International (customs port of entry)
Latitude:1917'34"N (19.292778)
Longitude:8121'28"W (-81.357749)
Datum:WGS 1984
Elevation:8 ft (2 m)
Variation:5.11W (WMM2015 magnetic declination)
-0.12 annual change
Runways:1
Longest:7021 × 148 ft (2140 × 45 m), paved

Time
Time Zone:UTC-5
Local Time:

Weather
METAR:MWCR 152300Z 08005KT 9999 FEW018 BKN035 26/23 Q1016
TAF:MWCR 152300Z 1600/1624 12010KT 9999 SHRA SCT016CB PROB40
TEMPO 1602/1606 8000 SHRA BKN016
BECMG 1608/1610 05005KT 9999 FEW018

Related Locations
Nearby:
Farthest:CCK: 11928 mi / 19196 km
West Island (Pulau Panjang) [Cocos (Keeling) Islands], CC

Find:

   beyond  
but within

Other Information
Maps:
NOTAMs:
Links:
Sources:

  
  • flag of Cayman Islands
  

Sectional Chart

Flight Planning
at skyvector.com

Satellite Image

Google Maps Satellite view

 

Copyright © 2004-2018 Karl L. Swartz. All rights reserved.
The Great Circle Mapper name and logo are trademarks of the Great Circle Mapper.
All other trademarks mentioned herein belong to their respective owners.
Please see credits for attibutions and further copyright information.

  Follow gcmap on Facebook Follow gcmap on Twitter Follow gcmap on Google+ GCmap on LinkedIn

hCard Microformat

Geo Microformat